Year,Month,Day,Hour,Minute,Value (Times are PST for temperature in C)
2014,08,24,00,00,17.50
2014,08,24,00,01,17.60
2014,08,24,00,02,17.60
2014,08,24,00,03,17.60
2014,08,24,00,04,17.50
2014,08,24,00,05,17.50
2014,08,24,00,06,17.50
2014,08,24,00,07,17.40
2014,08,24,00,08,17.40
2014,08,24,00,09,17.40
2014,08,24,00,10,17.30
2014,08,24,00,11,17.30
2014,08,24,00,12,17.20
2014,08,24,00,13,17.20
2014,08,24,00,14,17.10
2014,08,24,00,15,17.10
2014,08,24,00,16,17.00
2014,08,24,00,17,17.00
2014,08,24,00,18,16.90
2014,08,24,00,19,16.90
2014,08,24,00,20,16.80
2014,08,24,00,21,16.80
2014,08,24,00,22,16.80
2014,08,24,00,23,16.70
2014,08,24,00,24,16.70
2014,08,24,00,25,16.70
2014,08,24,00,26,16.70
2014,08,24,00,27,16.70
2014,08,24,00,28,16.70
2014,08,24,00,29,16.70
2014,08,24,00,30,16.70
2014,08,24,00,31,16.70
2014,08,24,00,32,16.70
2014,08,24,00,33,16.70
2014,08,24,00,34,16.70
2014,08,24,00,35,16.70
2014,08,24,00,36,16.70
2014,08,24,00,37,16.70
2014,08,24,00,38,16.70
2014,08,24,00,39,16.60
2014,08,24,00,40,16.60
2014,08,24,00,41,16.70
2014,08,24,00,42,16.70
2014,08,24,00,43,16.70
2014,08,24,00,44,16.70
2014,08,24,00,45,16.80
2014,08,24,00,46,16.90
2014,08,24,00,47,17.00
2014,08,24,00,48,17.20
2014,08,24,00,49,17.40
2014,08,24,00,50,17.60
2014,08,24,00,51,17.80
2014,08,24,00,52,18.00
2014,08,24,00,53,18.20
2014,08,24,00,54,18.40
2014,08,24,00,55,18.70
2014,08,24,00,56,18.90
2014,08,24,00,57,19.20
2014,08,24,00,58,19.40
2014,08,24,00,59,19.70
2014,08,24,01,00,19.90
2014,08,24,01,01,20.00
2014,08,24,01,02,20.20
2014,08,24,01,03,20.30
2014,08,24,01,04,20.30
2014,08,24,01,05,20.30
2014,08,24,01,06,20.30
2014,08,24,01,07,20.10
2014,08,24,01,08,19.90
2014,08,24,01,09,19.70
2014,08,24,01,10,19.60
2014,08,24,01,11,19.40
2014,08,24,01,12,19.30
2014,08,24,01,13,19.10
2014,08,24,01,14,19.00
2014,08,24,01,15,18.80
2014,08,24,01,16,18.70
2014,08,24,01,17,18.70
2014,08,24,01,18,18.60
2014,08,24,01,19,18.60
2014,08,24,01,20,18.60
2014,08,24,01,21,18.70
2014,08,24,01,22,18.70
2014,08,24,01,23,18.70
2014,08,24,01,24,18.70
2014,08,24,01,25,18.70
2014,08,24,01,26,18.70
2014,08,24,01,27,18.70
2014,08,24,01,28,18.70
2014,08,24,01,29,18.70
2014,08,24,01,30,18.70
2014,08,24,01,31,18.70
2014,08,24,01,32,18.70
2014,08,24,01,33,18.80
2014,08,24,01,34,18.80
2014,08,24,01,35,18.80
2014,08,24,01,36,18.80
2014,08,24,01,37,18.80
2014,08,24,01,38,18.70
2014,08,24,01,39,18.60
2014,08,24,01,40,18.50
2014,08,24,01,41,18.40
2014,08,24,01,42,18.40
2014,08,24,01,43,18.30
2014,08,24,01,44,18.20
2014,08,24,01,45,18.20
2014,08,24,01,46,18.10
2014,08,24,01,47,18.10
2014,08,24,01,48,18.00
2014,08,24,01,49,18.00
2014,08,24,01,50,17.90
2014,08,24,01,51,17.90
2014,08,24,01,52,17.90
2014,08,24,01,53,17.90
2014,08,24,01,54,17.90
2014,08,24,01,55,17.80
2014,08,24,01,56,17.80
2014,08,24,01,57,17.80
2014,08,24,01,58,17.80
2014,08,24,01,59,17.70
2014,08,24,02,00,17.70
2014,08,24,02,01,17.70
2014,08,24,02,02,17.60
2014,08,24,02,03,17.60
2014,08,24,02,04,17.60
2014,08,24,02,05,17.50
2014,08,24,02,06,17.50
2014,08,24,02,07,17.40
2014,08,24,02,08,17.40
2014,08,24,02,09,17.30
2014,08,24,02,10,17.30
2014,08,24,02,11,17.30
2014,08,24,02,12,17.20
2014,08,24,02,13,17.20
2014,08,24,02,14,17.20
2014,08,24,02,15,17.20
2014,08,24,02,16,17.10
2014,08,24,02,17,17.10
2014,08,24,02,18,17.10
2014,08,24,02,19,17.10
2014,08,24,02,20,17.20
2014,08,24,02,21,17.20
2014,08,24,02,22,17.20
2014,08,24,02,23,17.20
2014,08,24,02,24,17.10
2014,08,24,02,25,17.10
2014,08,24,02,26,17.10
2014,08,24,02,27,17.00
2014,08,24,02,28,17.00
2014,08,24,02,29,16.90
2014,08,24,02,30,16.90
2014,08,24,02,31,16.90
2014,08,24,02,32,16.90
2014,08,24,02,33,16.80
2014,08,24,02,34,16.80
2014,08,24,02,35,16.80
2014,08,24,02,36,16.80
2014,08,24,02,37,16.80
2014,08,24,02,38,16.80
2014,08,24,02,39,16.80
2014,08,24,02,40,16.80
2014,08,24,02,41,16.80
2014,08,24,02,42,16.80
2014,08,24,02,43,16.80
2014,08,24,02,44,16.80
2014,08,24,02,45,16.80
2014,08,24,02,46,16.70
2014,08,24,02,47,16.70
2014,08,24,02,48,16.60
2014,08,24,02,49,16.60
2014,08,24,02,50,16.50
2014,08,24,02,51,16.40
2014,08,24,02,52,16.40
2014,08,24,02,53,16.30
2014,08,24,02,54,16.30
2014,08,24,02,55,16.30
2014,08,24,02,56,16.20
2014,08,24,02,57,16.20
2014,08,24,02,58,16.20
2014,08,24,02,59,16.10
2014,08,24,03,00,16.10
2014,08,24,03,01,16.00
2014,08,24,03,02,16.00
2014,08,24,03,03,15.90
2014,08,24,03,04,15.90
2014,08,24,03,05,15.90
2014,08,24,03,06,15.80
2014,08,24,03,07,15.80
2014,08,24,03,08,15.80
2014,08,24,03,09,15.80
2014,08,24,03,10,15.80
2014,08,24,03,11,15.80
2014,08,24,03,12,15.80
2014,08,24,03,13,15.70
2014,08,24,03,14,15.70
2014,08,24,03,15,15.70
2014,08,24,03,16,15.70
2014,08,24,03,17,15.70
2014,08,24,03,18,15.70
2014,08,24,03,19,15.70
2014,08,24,03,20,15.70
2014,08,24,03,21,15.70
2014,08,24,03,22,15.70
2014,08,24,03,23,15.70
2014,08,24,03,24,15.60
2014,08,24,03,25,15.50
2014,08,24,03,26,15.50
2014,08,24,03,27,15.40
2014,08,24,03,28,15.30
2014,08,24,03,29,15.30
2014,08,24,03,30,15.20
2014,08,24,03,31,15.20
2014,08,24,03,32,15.10
2014,08,24,03,33,15.10
2014,08,24,03,34,15.10
2014,08,24,03,35,15.10
2014,08,24,03,36,15.10
2014,08,24,03,37,15.00
2014,08,24,03,38,15.00
2014,08,24,03,39,14.90
2014,08,24,03,40,14.90
2014,08,24,03,41,14.90
2014,08,24,03,42,14.80
2014,08,24,03,43,14.80
2014,08,24,03,44,14.80
2014,08,24,03,45,14.70
2014,08,24,03,46,14.60
2014,08,24,03,47,14.60
2014,08,24,03,48,14.60
2014,08,24,03,49,14.50
2014,08,24,03,50,14.50
2014,08,24,03,51,14.50
2014,08,24,03,52,14.50
2014,08,24,03,53,14.50
2014,08,24,03,54,14.50
2014,08,24,03,55,14.50
2014,08,24,03,56,14.50
2014,08,24,03,57,14.50
2014,08,24,03,58,14.50
2014,08,24,03,59,14.50
2014,08,24,04,00,14.50
2014,08,24,04,01,14.50
2014,08,24,04,02,14.60
2014,08,24,04,03,14.60
2014,08,24,04,04,14.60
2014,08,24,04,05,14.50
2014,08,24,04,06,14.50
2014,08,24,04,07,14.50
2014,08,24,04,08,14.40
2014,08,24,04,09,14.40
2014,08,24,04,10,14.40
2014,08,24,04,11,14.40
2014,08,24,04,12,14.30
2014,08,24,04,13,14.30
2014,08,24,04,14,14.30
2014,08,24,04,15,14.30
2014,08,24,04,16,14.30
2014,08,24,04,17,14.30
2014,08,24,04,18,14.30
2014,08,24,04,19,14.30
2014,08,24,04,20,14.30
2014,08,24,04,21,14.30
2014,08,24,04,22,14.30
2014,08,24,04,23,14.30
2014,08,24,04,24,14.40
2014,08,24,04,25,14.40
2014,08,24,04,26,14.40
2014,08,24,04,27,14.40
2014,08,24,04,28,14.40
2014,08,24,04,29,14.40
2014,08,24,04,30,14.40
2014,08,24,04,31,14.40
2014,08,24,04,32,14.30
2014,08,24,04,33,14.30
2014,08,24,04,34,14.20
2014,08,24,04,35,14.20
2014,08,24,04,36,14.20
2014,08,24,04,37,14.10
2014,08,24,04,38,14.10
2014,08,24,04,39,14.10
2014,08,24,04,40,14.00
2014,08,24,04,41,14.00
2014,08,24,04,42,14.00
2014,08,24,04,43,14.00
2014,08,24,04,44,13.90
2014,08,24,04,45,13.90
2014,08,24,04,46,13.90
2014,08,24,04,47,13.90
2014,08,24,04,48,13.90
2014,08,24,04,49,13.80
2014,08,24,04,50,13.90
2014,08,24,04,51,13.90
2014,08,24,04,52,13.90
2014,08,24,04,53,13.90
2014,08,24,04,54,13.90
2014,08,24,04,55,14.00
2014,08,24,04,56,14.00
2014,08,24,04,57,14.10
2014,08,24,04,58,14.00
2014,08,24,04,59,14.00
2014,08,24,05,00,14.00
2014,08,24,05,01,14.00
2014,08,24,05,02,14.00
2014,08,24,05,03,14.00
2014,08,24,05,04,14.00
2014,08,24,05,05,14.00
2014,08,24,05,06,14.00
2014,08,24,05,07,14.00
2014,08,24,05,08,13.90
2014,08,24,05,09,13.90
2014,08,24,05,10,13.90
2014,08,24,05,11,13.90
2014,08,24,05,12,13.80
2014,08,24,05,13,13.80
2014,08,24,05,14,13.80
2014,08,24,05,15,13.70
2014,08,24,05,16,13.70
2014,08,24,05,17,13.70
2014,08,24,05,18,13.70
2014,08,24,05,19,13.70
2014,08,24,05,20,13.70
2014,08,24,05,21,13.70
2014,08,24,05,22,13.70
2014,08,24,05,23,13.70
2014,08,24,05,24,13.70
2014,08,24,05,25,13.70
2014,08,24,05,26,13.70
2014,08,24,05,27,13.70
2014,08,24,05,28,13.70
2014,08,24,05,29,13.80
2014,08,24,05,30,13.80
2014,08,24,05,31,13.70
2014,08,24,05,32,13.70
2014,08,24,05,33,13.70
2014,08,24,05,34,13.60
2014,08,24,05,35,13.60
2014,08,24,05,36,13.50
2014,08,24,05,37,13.50
2014,08,24,05,38,13.50
2014,08,24,05,39,13.50
2014,08,24,05,40,13.50
2014,08,24,05,41,13.50
2014,08,24,05,42,13.50
2014,08,24,05,43,13.50
2014,08,24,05,44,13.50
2014,08,24,05,45,13.50
2014,08,24,05,46,13.50
2014,08,24,05,47,13.50
2014,08,24,05,48,13.60
2014,08,24,05,49,13.60
2014,08,24,05,50,13.60
2014,08,24,05,51,13.60
2014,08,24,05,52,13.60
2014,08,24,05,53,13.60
2014,08,24,05,54,13.60
2014,08,24,05,55,13.60
2014,08,24,05,56,13.60
2014,08,24,05,57,13.50
2014,08,24,05,58,13.50
2014,08,24,05,59,13.50
2014,08,24,06,00,13.40
2014,08,24,06,01,13.40
2014,08,24,06,02,13.40
2014,08,24,06,03,13.40
2014,08,24,06,04,13.30
2014,08,24,06,05,13.30
2014,08,24,06,06,13.30
2014,08,24,06,07,13.30
2014,08,24,06,08,13.30
2014,08,24,06,09,13.30
2014,08,24,06,10,13.30
2014,08,24,06,11,13.30
2014,08,24,06,12,13.30
2014,08,24,06,13,13.30
2014,08,24,06,14,13.30
2014,08,24,06,15,13.30
2014,08,24,06,16,13.20
2014,08,24,06,17,13.20
2014,08,24,06,18,13.20
2014,08,24,06,19,13.20
2014,08,24,06,20,13.10
2014,08,24,06,21,13.10
2014,08,24,06,22,13.10
2014,08,24,06,23,13.10
2014,08,24,06,24,13.10
2014,08,24,06,25,13.10
2014,08,24,06,26,13.10
2014,08,24,06,27,13.00
2014,08,24,06,28,13.00
2014,08,24,06,29,12.90
2014,08,24,06,30,12.90
2014,08,24,06,31,12.80
2014,08,24,06,32,12.80
2014,08,24,06,33,12.80
2014,08,24,06,34,12.80
2014,08,24,06,35,12.80
2014,08,24,06,36,12.80
2014,08,24,06,37,12.80
2014,08,24,06,38,12.80
2014,08,24,06,39,12.80
2014,08,24,06,40,12.80
2014,08,24,06,41,12.90
2014,08,24,06,42,12.90
2014,08,24,06,43,12.90
2014,08,24,06,44,12.90
2014,08,24,06,45,13.00
2014,08,24,06,46,13.00
2014,08,24,06,47,13.10
2014,08,24,06,48,13.10
2014,08,24,06,49,13.10
2014,08,24,06,50,13.10
2014,08,24,06,51,13.20
2014,08,24,06,52,13.20
2014,08,24,06,53,13.20
2014,08,24,06,54,13.20
2014,08,24,06,55,13.20
2014,08,24,06,56,13.20
2014,08,24,06,57,13.20
2014,08,24,06,58,13.20
2014,08,24,06,59,13.20
2014,08,24,07,00,13.20
2014,08,24,07,01,13.20
2014,08,24,07,02,13.20
2014,08,24,07,03,13.20
2014,08,24,07,04,13.20
2014,08,24,07,05,13.20
2014,08,24,07,06,13.20
2014,08,24,07,07,13.20
2014,08,24,07,08,13.30
2014,08,24,07,09,13.30
2014,08,24,07,10,13.30
2014,08,24,07,11,13.40
2014,08,24,07,12,13.40
2014,08,24,07,13,13.40
2014,08,24,07,14,13.40
2014,08,24,07,15,13.50
2014,08,24,07,16,13.50
2014,08,24,07,17,13.50
2014,08,24,07,18,13.50
2014,08,24,07,19,13.50
2014,08,24,07,20,13.60
2014,08,24,07,21,13.60
2014,08,24,07,22,13.60
2014,08,24,07,23,13.60
2014,08,24,07,24,13.60
2014,08,24,07,25,13.60
2014,08,24,07,26,13.60
2014,08,24,07,27,13.70
2014,08,24,07,28,13.70
2014,08,24,07,29,13.70
2014,08,24,07,30,13.80
2014,08,24,07,31,13.80
2014,08,24,07,32,13.90
2014,08,24,07,33,14.00
2014,08,24,07,34,14.10
2014,08,24,07,35,14.20
2014,08,24,07,36,14.30
2014,08,24,07,37,14.40
2014,08,24,07,38,14.50
2014,08,24,07,39,14.60
2014,08,24,07,40,14.70
2014,08,24,07,41,14.80
2014,08,24,07,42,14.90
2014,08,24,07,43,15.00
2014,08,24,07,44,15.20
2014,08,24,07,45,15.30
2014,08,24,07,46,15.30
2014,08,24,07,47,15.40
2014,08,24,07,48,15.50
2014,08,24,07,49,15.60
2014,08,24,07,50,15.70
2014,08,24,07,51,15.80
2014,08,24,07,52,15.90
2014,08,24,07,53,16.00
2014,08,24,07,54,16.00
2014,08,24,07,55,16.20
2014,08,24,07,56,16.30
2014,08,24,07,57,16.40
2014,08,24,07,58,16.50
2014,08,24,07,59,16.70
2014,08,24,08,00,16.80
2014,08,24,08,01,17.00
2014,08,24,08,02,17.20
2014,08,24,08,03,17.30
2014,08,24,08,04,17.40
2014,08,24,08,05,17.50
2014,08,24,08,06,17.60
2014,08,24,08,07,17.70
2014,08,24,08,08,17.80
2014,08,24,08,09,17.90
2014,08,24,08,10,18.00
2014,08,24,08,11,18.00
2014,08,24,08,12,18.10
2014,08,24,08,13,18.10
2014,08,24,08,14,18.20
2014,08,24,08,15,18.20
2014,08,24,08,16,18.30
2014,08,24,08,17,18.30
2014,08,24,08,18,18.40
2014,08,24,08,19,18.50
2014,08,24,08,20,18.50
2014,08,24,08,21,18.60
2014,08,24,08,22,18.60
2014,08,24,08,23,18.70
2014,08,24,08,24,18.70
2014,08,24,08,25,18.80
2014,08,24,08,26,18.80
2014,08,24,08,27,18.90
2014,08,24,08,28,18.90
2014,08,24,08,29,18.90
2014,08,24,08,30,18.90
2014,08,24,08,31,18.90
2014,08,24,08,32,19.00
2014,08,24,08,33,19.00
2014,08,24,08,34,19.10
2014,08,24,08,35,19.10
2014,08,24,08,36,19.10
2014,08,24,08,37,19.10
2014,08,24,08,38,19.10
2014,08,24,08,39,19.20
2014,08,24,08,40,19.20
2014,08,24,08,41,19.20
2014,08,24,08,42,19.20
2014,08,24,08,43,19.30
2014,08,24,08,44,19.30
2014,08,24,08,45,19.30
2014,08,24,08,46,19.30
2014,08,24,08,47,19.30
2014,08,24,08,48,19.30
2014,08,24,08,49,19.30
2014,08,24,08,50,19.40
2014,08,24,08,51,19.40
2014,08,24,08,52,19.40
2014,08,24,08,53,19.40
2014,08,24,08,54,19.40
2014,08,24,08,55,19.40
2014,08,24,08,56,19.50
2014,08,24,08,57,19.50
2014,08,24,08,58,19.50
2014,08,24,08,59,19.60
2014,08,24,09,00,19.60
2014,08,24,09,01,19.60
2014,08,24,09,02,19.60
2014,08,24,09,03,19.60
2014,08,24,09,04,19.60
2014,08,24,09,05,19.60
2014,08,24,09,06,19.60
2014,08,24,09,07,19.70
2014,08,24,09,08,19.70
2014,08,24,09,09,19.70
2014,08,24,09,10,19.70
2014,08,24,09,11,19.70
2014,08,24,09,12,19.70
2014,08,24,09,13,19.80
2014,08,24,09,14,19.80
2014,08,24,09,15,19.80
2014,08,24,09,16,19.80
2014,08,24,09,17,19.90
2014,08,24,09,18,19.90
2014,08,24,09,19,19.90
2014,08,24,09,20,20.00
2014,08,24,09,21,20.10
2014,08,24,09,22,20.10
2014,08,24,09,23,20.20
2014,08,24,09,24,20.20
2014,08,24,09,25,20.20
2014,08,24,09,26,20.30
2014,08,24,09,27,20.30
2014,08,24,09,28,20.30
2014,08,24,09,29,20.30
2014,08,24,09,30,20.30
2014,08,24,09,31,20.40
2014,08,24,09,32,20.40
2014,08,24,09,33,20.40
2014,08,24,09,34,20.40
2014,08,24,09,35,20.50
2014,08,24,09,36,20.50
2014,08,24,09,37,20.60
2014,08,24,09,38,20.60
2014,08,24,09,39,20.60
2014,08,24,09,40,20.60
2014,08,24,09,41,20.70
2014,08,24,09,42,20.70
2014,08,24,09,43,20.70
2014,08,24,09,44,20.80
2014,08,24,09,45,20.80
2014,08,24,09,46,20.80
2014,08,24,09,47,20.80
2014,08,24,09,48,20.80
2014,08,24,09,49,20.90
2014,08,24,09,50,20.90
2014,08,24,09,51,20.90
2014,08,24,09,52,21.00
2014,08,24,09,53,21.00
2014,08,24,09,54,21.10
2014,08,24,09,55,21.10
2014,08,24,09,56,21.20
2014,08,24,09,57,21.20
2014,08,24,09,58,21.30
2014,08,24,09,59,21.30
2014,08,24,10,00,21.30
2014,08,24,10,01,21.30
2014,08,24,10,02,21.30
2014,08,24,10,03,21.40
2014,08,24,10,04,21.40
2014,08,24,10,05,21.40
2014,08,24,10,06,21.40
2014,08,24,10,07,21.40
2014,08,24,10,08,21.50
2014,08,24,10,09,21.50
2014,08,24,10,10,21.60
2014,08,24,10,11,21.60
2014,08,24,10,12,21.60
2014,08,24,10,13,21.60
2014,08,24,10,14,21.60
2014,08,24,10,15,21.60
2014,08,24,10,16,21.60
2014,08,24,10,17,21.60
2014,08,24,10,18,21.70
2014,08,24,10,19,21.70
2014,08,24,10,20,21.70
2014,08,24,10,21,21.70
2014,08,24,10,22,21.70
2014,08,24,10,23,21.80
2014,08,24,10,24,21.80
2014,08,24,10,25,21.80
2014,08,24,10,26,21.80
2014,08,24,10,27,21.90
2014,08,24,10,28,21.90
2014,08,24,10,29,22.00
2014,08,24,10,30,22.00
2014,08,24,10,31,22.00
2014,08,24,10,32,22.10
2014,08,24,10,33,22.10
2014,08,24,10,34,22.00
2014,08,24,10,35,21.90
2014,08,24,10,36,21.90
2014,08,24,10,37,22.00
2014,08,24,10,38,22.00
2014,08,24,10,39,22.10
2014,08,24,10,40,22.10
2014,08,24,10,41,22.10
2014,08,24,10,42,22.10
2014,08,24,10,43,22.10
2014,08,24,10,44,22.20
2014,08,24,10,45,22.20
2014,08,24,10,46,22.30
2014,08,24,10,47,22.40
2014,08,24,10,48,22.40
2014,08,24,10,49,22.50
2014,08,24,10,50,22.50
2014,08,24,10,51,22.60
2014,08,24,10,52,22.70
2014,08,24,10,53,22.70
2014,08,24,10,54,22.70
2014,08,24,10,55,22.70
2014,08,24,10,56,22.70
2014,08,24,10,57,22.80
2014,08,24,10,58,22.80
2014,08,24,10,59,22.80
2014,08,24,11,00,22.90
2014,08,24,11,01,22.90
2014,08,24,11,02,22.80
2014,08,24,11,03,22.80
2014,08,24,11,04,22.70
2014,08,24,11,05,22.70
2014,08,24,11,06,22.70
2014,08,24,11,07,22.60
2014,08,24,11,08,22.60
2014,08,24,11,09,22.70
2014,08,24,11,10,22.60
2014,08,24,11,11,22.60
2014,08,24,11,12,22.60
2014,08,24,11,13,22.60
2014,08,24,11,14,22.60
2014,08,24,11,15,22.60
2014,08,24,11,16,22.60
2014,08,24,11,17,22.70
2014,08,24,11,18,22.70
2014,08,24,11,19,22.80
2014,08,24,11,20,22.80
2014,08,24,11,21,22.80
2014,08,24,11,22,22.80
2014,08,24,11,23,22.80
2014,08,24,11,24,22.80
2014,08,24,11,25,22.80
2014,08,24,11,26,22.80
2014,08,24,11,27,22.80
2014,08,24,11,28,22.80
2014,08,24,11,29,22.80
2014,08,24,11,30,22.70
2014,08,24,11,31,22.80
2014,08,24,11,32,22.80
2014,08,24,11,33,22.80
2014,08,24,11,34,22.90
2014,08,24,11,35,22.90
2014,08,24,11,36,22.90
2014,08,24,11,37,22.90
2014,08,24,11,38,22.90
2014,08,24,11,39,22.90
2014,08,24,11,40,23.00
2014,08,24,11,41,23.10
2014,08,24,11,42,23.20
2014,08,24,11,43,23.20
2014,08,24,11,44,23.30
2014,08,24,11,45,23.30
2014,08,24,11,46,23.30
2014,08,24,11,47,23.30
2014,08,24,11,48,23.40
2014,08,24,11,49,23.30
2014,08,24,11,50,23.30
2014,08,24,11,51,23.20
2014,08,24,11,52,23.20
2014,08,24,11,53,23.30
2014,08,24,11,54,23.30
2014,08,24,11,55,23.40
2014,08,24,11,56,23.50
2014,08,24,11,57,23.70
2014,08,24,11,58,23.80
2014,08,24,11,59,23.90
2014,08,24,12,00,23.90
2014,08,24,12,01,23.90
2014,08,24,12,02,23.90
2014,08,24,12,03,24.00
2014,08,24,12,04,24.10
2014,08,24,12,05,24.10
2014,08,24,12,06,24.10
2014,08,24,12,07,24.10
2014,08,24,12,08,24.00
2014,08,24,12,09,23.90
2014,08,24,12,10,23.90
2014,08,24,12,11,23.90
2014,08,24,12,12,23.90
2014,08,24,12,13,24.00
2014,08,24,12,14,24.00
2014,08,24,12,15,24.00
2014,08,24,12,16,24.00
2014,08,24,12,17,24.00
2014,08,24,12,18,24.00
2014,08,24,12,19,24.00
2014,08,24,12,20,24.00
2014,08,24,12,21,23.90
2014,08,24,12,22,23.90
2014,08,24,12,23,23.90
2014,08,24,12,24,23.90
2014,08,24,12,25,23.90
2014,08,24,12,26,23.90
2014,08,24,12,27,23.90
2014,08,24,12,28,23.80
2014,08,24,12,29,23.80
2014,08,24,12,30,23.70
2014,08,24,12,31,23.70
2014,08,24,12,32,23.80
2014,08,24,12,33,23.80
2014,08,24,12,34,23.80
2014,08,24,12,35,23.90
2014,08,24,12,36,24.00
2014,08,24,12,37,24.00
2014,08,24,12,38,24.10
2014,08,24,12,39,24.10
2014,08,24,12,40,24.20
2014,08,24,12,41,24.20
2014,08,24,12,42,24.30
2014,08,24,12,43,24.40
2014,08,24,12,44,24.40
2014,08,24,12,45,24.40
2014,08,24,12,46,24.40
2014,08,24,12,47,24.40
2014,08,24,12,48,24.50
2014,08,24,12,49,24.50
2014,08,24,12,50,24.50
2014,08,24,12,51,24.50
2014,08,24,12,52,24.50
2014,08,24,12,53,24.60
2014,08,24,12,54,24.70
2014,08,24,12,55,24.70
2014,08,24,12,56,24.70
2014,08,24,12,57,24.70
2014,08,24,12,58,24.70
2014,08,24,12,59,24.70
2014,08,24,13,00,24.60
2014,08,24,13,01,24.60
2014,08,24,13,02,24.60
2014,08,24,13,03,24.70
2014,08,24,13,04,24.80
2014,08,24,13,05,24.90
2014,08,24,13,06,24.90
2014,08,24,13,07,24.80
2014,08,24,13,08,24.80
2014,08,24,13,09,24.80
2014,08,24,13,10,24.80
2014,08,24,13,11,24.80
2014,08,24,13,12,24.80
2014,08,24,13,13,24.80
2014,08,24,13,14,24.90
2014,08,24,13,15,24.90
2014,08,24,13,16,24.90
2014,08,24,13,17,24.90
2014,08,24,13,18,24.90
2014,08,24,13,19,24.90
2014,08,24,13,20,24.90
2014,08,24,13,21,24.90
2014,08,24,13,22,24.90
2014,08,24,13,23,24.90
2014,08,24,13,24,24.90
2014,08,24,13,25,24.90
2014,08,24,13,26,24.90
2014,08,24,13,27,24.90
2014,08,24,13,28,24.90
2014,08,24,13,29,24.90
2014,08,24,13,30,24.90
2014,08,24,13,31,25.00
2014,08,24,13,32,25.10
2014,08,24,13,33,25.10
2014,08,24,13,34,25.10
2014,08,24,13,35,25.10
2014,08,24,13,36,25.20
2014,08,24,13,37,25.10
2014,08,24,13,38,25.00
2014,08,24,13,39,24.90
2014,08,24,13,40,24.90
2014,08,24,13,41,24.90
2014,08,24,13,42,24.80
2014,08,24,13,43,24.80
2014,08,24,13,44,24.80
2014,08,24,13,45,24.70
2014,08,24,13,46,24.70
2014,08,24,13,47,24.70
2014,08,24,13,48,24.70
2014,08,24,13,49,24.60
2014,08,24,13,50,24.50
2014,08,24,13,51,24.40
2014,08,24,13,52,24.40
2014,08,24,13,53,24.30
2014,08,24,13,54,24.30
2014,08,24,13,55,24.20
2014,08,24,13,56,24.10
2014,08,24,13,57,24.10
2014,08,24,13,58,24.20
2014,08,24,13,59,24.30
2014,08,24,14,00,24.30
2014,08,24,14,01,24.30
2014,08,24,14,02,24.30
2014,08,24,14,03,24.30
2014,08,24,14,04,24.30
2014,08,24,14,05,24.30
2014,08,24,14,06,24.20
2014,08,24,14,07,24.10
2014,08,24,14,08,24.10
2014,08,24,14,09,24.00
2014,08,24,14,10,24.00
2014,08,24,14,11,24.00
2014,08,24,14,12,24.10
2014,08,24,14,13,24.20
2014,08,24,14,14,24.30
2014,08,24,14,15,24.40
2014,08,24,14,16,24.50
2014,08,24,14,17,24.50
2014,08,24,14,18,24.50
2014,08,24,14,19,24.50
2014,08,24,14,20,24.50
2014,08,24,14,21,24.60
2014,08,24,14,22,24.70
2014,08,24,14,23,24.80
2014,08,24,14,24,24.80
2014,08,24,14,25,24.80
2014,08,24,14,26,24.80
2014,08,24,14,27,24.80
2014,08,24,14,28,24.80
2014,08,24,14,29,24.80
2014,08,24,14,30,24.80
2014,08,24,14,31,24.90
2014,08,24,14,32,25.00
2014,08,24,14,33,25.00
2014,08,24,14,34,25.10
2014,08,24,14,35,25.10
2014,08,24,14,36,25.00
2014,08,24,14,37,24.90
2014,08,24,14,38,24.90
2014,08,24,14,39,24.90
2014,08,24,14,40,24.90
2014,08,24,14,41,25.00
2014,08,24,14,42,25.00
2014,08,24,14,43,25.10
2014,08,24,14,44,25.10
2014,08,24,14,45,25.10
2014,08,24,14,46,25.10
2014,08,24,14,47,25.00
2014,08,24,14,48,25.00
2014,08,24,14,49,25.10
2014,08,24,14,50,25.10
2014,08,24,14,51,25.30
2014,08,24,14,52,25.40
2014,08,24,14,53,25.40
2014,08,24,14,54,25.40
2014,08,24,14,55,25.40
2014,08,24,14,56,25.30
2014,08,24,14,57,25.20
2014,08,24,14,58,25.10
2014,08,24,14,59,25.10
2014,08,24,15,00,25.10
2014,08,24,15,01,25.20
2014,08,24,15,02,25.20
2014,08,24,15,03,25.20
2014,08,24,15,04,25.30
2014,08,24,15,05,25.30
2014,08,24,15,06,25.30
2014,08,24,15,07,25.40
2014,08,24,15,08,25.50
2014,08,24,15,09,25.60
2014,08,24,15,10,25.70
2014,08,24,15,11,25.80
2014,08,24,15,12,25.80
2014,08,24,15,13,25.90
2014,08,24,15,14,25.90
2014,08,24,15,15,25.90
2014,08,24,15,16,25.90
2014,08,24,15,17,25.90
2014,08,24,15,18,26.00
2014,08,24,15,19,26.10
2014,08,24,15,20,26.20
2014,08,24,15,21,26.20
2014,08,24,15,22,26.20
2014,08,24,15,23,26.20
2014,08,24,15,24,26.30
2014,08,24,15,25,26.30
2014,08,24,15,26,26.30
2014,08,24,15,27,26.20
2014,08,24,15,28,26.20
2014,08,24,15,29,26.20
2014,08,24,15,30,26.20
2014,08,24,15,31,26.20
2014,08,24,15,32,26.20
2014,08,24,15,33,26.20
2014,08,24,15,34,26.30
2014,08,24,15,35,26.30
2014,08,24,15,36,26.40
2014,08,24,15,37,26.40
2014,08,24,15,38,26.50
2014,08,24,15,39,26.50
2014,08,24,15,40,26.50
2014,08,24,15,41,26.60
2014,08,24,15,42,26.60
2014,08,24,15,43,26.70
2014,08,24,15,44,26.80
2014,08,24,15,45,26.90
2014,08,24,15,46,26.90
2014,08,24,15,47,26.90
2014,08,24,15,48,26.80
2014,08,24,15,49,26.70
2014,08,24,15,50,26.60
2014,08,24,15,51,26.50
2014,08,24,15,52,26.50
2014,08,24,15,53,26.50
2014,08,24,15,54,26.40
2014,08,24,15,55,26.40
2014,08,24,15,56,26.40
2014,08,24,15,57,26.40
2014,08,24,15,58,26.40
2014,08,24,15,59,26.40
2014,08,24,16,00,26.40
2014,08,24,16,01,26.40
2014,08,24,16,02,26.40
2014,08,24,16,03,26.40
2014,08,24,16,04,26.40
2014,08,24,16,05,26.40
2014,08,24,16,06,26.40
2014,08,24,16,07,26.40
2014,08,24,16,08,26.50
2014,08,24,16,09,26.50
2014,08,24,16,10,26.50
2014,08,24,16,11,26.60
2014,08,24,16,12,26.60
2014,08,24,16,13,26.70
2014,08,24,16,14,26.70
2014,08,24,16,15,26.60
2014,08,24,16,16,26.60
2014,08,24,16,17,26.60
2014,08,24,16,18,26.60
2014,08,24,16,19,26.50
2014,08,24,16,20,26.50
2014,08,24,16,21,26.50
2014,08,24,16,22,26.40
2014,08,24,16,23,26.40
2014,08,24,16,24,26.40
2014,08,24,16,25,26.40
2014,08,24,16,26,26.40
2014,08,24,16,27,26.40
2014,08,24,16,28,26.40
2014,08,24,16,29,26.40
2014,08,24,16,30,26.40
2014,08,24,16,31,26.50
2014,08,24,16,32,26.50
2014,08,24,16,33,26.50
2014,08,24,16,34,26.60
2014,08,24,16,35,26.60
2014,08,24,16,36,26.70
2014,08,24,16,37,26.70
2014,08,24,16,38,26.80
2014,08,24,16,39,26.80
2014,08,24,16,40,26.80
2014,08,24,16,41,26.80
2014,08,24,16,42,26.80
2014,08,24,16,43,26.80
2014,08,24,16,44,26.70
2014,08,24,16,45,26.70
2014,08,24,16,46,26.60
2014,08,24,16,47,26.60
2014,08,24,16,48,26.60
2014,08,24,16,49,26.60
2014,08,24,16,50,26.60
2014,08,24,16,51,26.60
2014,08,24,16,52,26.60
2014,08,24,16,53,26.60
2014,08,24,16,54,26.60
2014,08,24,16,55,26.60
2014,08,24,16,56,26.60
2014,08,24,16,57,26.60
2014,08,24,16,58,26.70
2014,08,24,16,59,26.80
2014,08,24,17,00,26.80
2014,08,24,17,01,26.80
2014,08,24,17,02,26.90
2014,08,24,17,03,26.90
2014,08,24,17,04,26.90
2014,08,24,17,05,27.00
2014,08,24,17,06,27.00
2014,08,24,17,07,27.10
2014,08,24,17,08,27.10
2014,08,24,17,09,27.20
2014,08,24,17,10,27.20
2014,08,24,17,11,27.30
2014,08,24,17,12,27.40
2014,08,24,17,13,27.40
2014,08,24,17,14,27.40
2014,08,24,17,15,27.40
2014,08,24,17,16,27.40
2014,08,24,17,17,27.40
2014,08,24,17,18,27.30
2014,08,24,17,19,27.30